sat.trackr.live / text

‹ back to catalog

STARLINK-30836

NORAD 58221 · 2023-170R

PAYLOAD ACTIVE UNKNOWN

§ Identity

Operator
Country
US
Launch date
2023-11-03
Launch site
AFETR
Launch vehicle
Mass (kg)
RCS (m²)

Purposes: comms

External: N2YO · Heavens-Above · Gunter

§ Orbital elements

Epoch: 2026-09-20T02:49:31.159200Z

Period
94.27 min
Inclination
42.9915°
Eccentricity
0.0000107
Mean motion
15.27594460 rev/d
Perigee alt
482.9 km
Apogee alt
483.1 km
Semi-major
6,861.1 km
B*
4.0359e-5
RAAN
176.2897°
Arg perigee
29.7707°
Mean anomaly
330.3151°
Rev number
16,003

§ Raw data

STARLINK-308361 58221U 23170R   26263.11772175  .00000850  00000+0  40359-4 0  99982 58221  42.9915 176.2897 0000107  29.7707 330.3151 15.27594460160039

JSON: /api/v1/satellites/58221 · /tle

For live sub-satellite position, see the globe view (requires WebGL).

§ Visibility from observer

Set your observer location to see the next 7 days of passes ≥ 10°. The values pass through the URL so the page stays shareable.

No JS? Fill the form by hand. The geolocation button needs JavaScript.